Location: Jablonec nad Nisou
(50.7170°N, 15.1830°E)
Time: 20:04:17
(UTC+02:00)

ISS - Pass Details

Date: 31 March 2019
Orbit: 408 x 410 km, 51.6° (Epoch: 26 April)

Event Time Altitude Azimuth Distance (km) Brightness Sun altitude
Rises 20:59:24 0° 281° (W) 2,338 1.7 -14.4°
Reaches altitude 10° 21:01:29 10° 282° (WNW) 1,475 0.3 -14.7°
Maximum altitude 21:04:48 87° 12° (NNE) 415 -3.9 -15.1°
Enters shadow 21:06:03 35° 99° (E) 674 -3.2 -15.3°
